Location: Kelowna
(49.8880°N, 119.4960°W)
Time: 21:52:14
(UTC-07:00)

Envisat - Visible Passes

Search period start: 22 April 2025 00:00
Search period end: 02 May 2025 00:00
Orbit: 761 x 763 km, 98.3° (Epoch: 22 April)

Date Brightness Start Highest point End Pass type
(mag) Time Alt. Az. Time Alt. Az. Time Alt. Az.
22 Apr 3.8 03:35:04 10° NNE 03:40:00 48° E 03:44:00 15° S visible
22 Apr 4.1 05:14:26 10° N 05:18:43 28° WNW 05:22:59 10° WSW visible
23 Apr 4.9 02:57:56 10° NE 03:02:02 24° E 03:05:59 10° SE visible
23 Apr 3.2 04:36:21 10° N 04:41:18 54° WNW 04:46:08 10° SW visible
24 Apr 5.6 02:22:11 10° ENE 02:23:51 11° E 02:25:32 10° ESE visible
24 Apr 3.1 03:58:35 10° NNE 04:03:41 76° ESE 04:08:07 14° S visible
25 Apr 4.2 03:21:09 10° NNE 03:25:52 37° E 03:30:05 12° SSE visible
25 Apr 3.8 05:00:11 10° N 05:04:47 35° WNW 05:09:21 10° SW visible
26 Apr 5.2 02:44:18 10° NE 02:47:49 19° E 02:51:19 10° SE visible
26 Apr 3.0 04:22:13 10° N 04:27:17 70° WNW 04:32:12 11° SSW visible
27 Apr 3.5 03:44:34 10° NNE 03:49:35 59° E 03:54:11 12° S visible
28 Apr 4.6 03:07:18 10° NE 03:11:41 29° E 03:16:03 10° SSE visible
28 Apr 3.5 04:45:59 10° N 04:50:49 45° WNW 04:55:37 10° SW visible
29 Apr 5.4 02:30:54 10° NE 02:33:34 14° E 02:36:14 10° ESE visible
29 Apr 3.0 04:08:08 10° NNE 04:13:14 89° WNW 04:18:15 10° SSW visible
30 Apr 3.9 03:30:36 10° NNE 03:35:28 45° E 03:40:13 10° S visible
01 May 5.0 02:53:33 10° NE 02:57:29 22° E 03:01:25 10° SE visible
01 May 3.2 04:31:49 10° N 04:36:48 58° WNW 04:41:46 10° SSW visible
